Date,TemperatureHighF,TemperatureAvgF,TemperatureLowF,DewpointHighF,DewpointAvgF,DewpointLowF,HumidityHigh,HumidityAvg,HumidityLow,PressureMaxIn,PressureMinIn,WindSpeedMaxMPH,WindSpeedAvgMPH,GustSpeedMaxMPH,PrecipitationSumIn
2013-1-7,22,20,19,20,18,17,92,91,90,0.00,40.00,1,1,4,0.00
2013-1-8,25,20,9,22,17,5,92,90,85,0.00,40.00,2,1,5,0.00
2013-1-9,16,11,5,12,8,0,88,86,81,0.00,40.00,1,1,3,0.00
2013-1-10,24,20,16,22,18,13,92,90,88,0.00,40.00,2,1,6,0.00
2013-1-11,26,23,20,24,21,18,93,92,91,0.00,40.00,2,1,5,0.00
2013-1-12,36,29,20,35,27,18,97,94,91,0.00,40.00,5,3,19,0.10
2013-1-13,37,35,34,36,34,33,99,97,91,0.00,40.00,5,3,12,0.18
2013-1-14,47,40,35,38,31,15,99,73,47,0.00,40.00,9,5,25,0.15
2013-1-15,33,24,17,19,15,12,85,69,46,0.00,40.00,6,1,15,0.02
2013-1-16,22,21,20,19,17,15,91,87,80,0.00,40.00,0,0,1,0.00
2013-1-17,20,17,11,18,14,8,91,86,82,0.00,40.00,0,0,0,0.00
2013-1-18,13,9,-3,9,5,-8,86,83,77,0.00,40.00,0,0,0,0.00
2013-1-19,21,16,11,18,12,7,88,85,81,0.00,40.00,1,0,1,0.00
2013-1-20,26,23,15,23,19,12,92,87,78,0.00,40.00,0,0,1,0.00
2013-1-21,25,20,9,23,17,5,93,88,84,0.00,40.00,0,0,0,0.00
2013-1-22,29,27,24,27,25,22,94,93,91,0.00,40.00,0,0,0,0.00
2013-1-23,32,25,17,29,23,15,94,92,80,0.00,40.00,2,0,5,0.00
2013-1-24,39,29,16,29,24,13,95,84,64,0.00,40.00,4,1,13,0.04
2013-1-25,36,20,-9,28,11,-15,92,68,48,0.00,40.00,5,2,12,0.04
2013-1-26,2,-8,-17,-5,-16,-25,73,69,65,0.00,40.00,1,0,1,0.01
2013-1-27,-1,-13,-23,-11,-22,-31,73,63,56,0.00,40.00,1,0,2,0.00
2013-1-28,5,-1,-22,0,-10,-31,79,66,51,0.00,40.00,2,1,4,0.00
2013-1-29,13,8,5,6,2,-1,79,75,69,0.00,40.00,2,1,4,0.00
2013-1-30,23,18,13,20,13,5,89,82,68,0.00,40.00,2,1,10,0.00
2013-1-31,35,31,27,34,30,26,98,96,94,0.00,40.00,3,1,7,0.03